Location: Unspecified
(48.2082°N, 0.0000°E)
Time: 14:08:59
(UTC+00:00)

Tiros 1 despin weight - Pass Details

Date: 29 June 2019
Orbit: 594 x 642 km, 48.2° (Epoch: 17 August)

Event Time Altitude Azimuth Distance (km) Brightness Sun altitude
Rises 22:32:49 0° 264° (W) 2,865 ? -15.7°
Reaches altitude 10° 22:35:08 10° 264° (W) 1,954 ? -15.9°
Maximum altitude 22:39:37 89° 184° (S) 606 ? -16.1°
Drops below altitude 10° 22:44:04 10° 86° (E) 1,933 ? -16.4°
Sets 22:46:20 0° 86° (E) 2,832 ? -16.5°
